Regional Weather Roundup
Issued by NWS

Home | Current Version | Previous Version | Graphics & Text | Print | Product List | Glossary On
Versions: 1 2 3 4 5 6 7 8 9 10 11 12 13 14 15 16 17 18 19 20 21 22 23 24 25 26 27 28 29 30 31 32 33 34 35 36 37 38 39 40 41 42 43 44 45 46 47 48 49 50
574
ASUS44 KLIX 272101
RWRLA
LOUISIANA WEATHER ROUNDUP
NATIONAL WEATHER SERVICE NEW ORLEANS LA
300 PM CST TUE JAN 27 2015

NOTE: "FAIR" INDICATES FEW OR NO CLOUDS BELOW 12,000 FEET WITH NO
      SIGNIFICANT WEATHER AND/OR OBSTRUCTIONS TO VISIBILITY.
      SKY/WX - SKY CONDITION AND SIGNIFICANT WEATHER.
      TMP - AIR TEMPERATURE.    DP   - DEWPOINT TEMPERATURE.
      RH  - RELATIVE HUMIDITY.  PRES - PRESSURE.
      HX  - HEAT INDEX.         WCI  - WIND CHILL INDEX.

*  THESE STATIONS ARE NOT NWS OR FAA STATIONS AND ARE NOT UNDER
   NWS QUALITY CONTROL.

LAZ040-048-061>063-065-066-069-272200-
SOUTHEAST LOUISIANA

CITY           SKY/WX    TMP DP  RH WIND       PRES   REMARKS
N.O. AUDUBON     N/A    N/A N/A N/A MISG        N/A
N.O. INTL ARPT MOSUNNY   72  39  30 NW10      30.07F
N.O. LAKEFRONT SUNNY     64  45  49 W8        30.08S
N.O. DOWNTOWN* FAIR     N/A N/A N/A NW3       30.08S
SLIDELL        SUNNY     74  34  23 NW9       30.05S
BATON ROUGE    SUNNY     76  30  18 NW8       30.08S
BOOTHVILLE     SUNNY     68  39  34 NW7       30.08S
BELLE CHASSE   SUNNY     73  35  25 VRB7      30.07S
BOGALUSA*        N/A     74  31  20 N12       30.07S
GALLIANO*      NOT AVBL
NEW ROADS*     NOT AVBL
GONZALES*      NOT AVBL
HAMMOND*       NOT AVBL
HOUMA*         SUNNY     73  41  31 NW3       30.08S
PORT FOURCHON* CLEAR     64  48  55 W8        30.12S

$$

LAZ041-044-053-054-272200-
SOUTHWEST LOUISIANA

CITY           SKY/WX    TMP DP  RH WIND       PRES   REMARKS
LAKE CHARLES   SUNNY     73  44  35 CALM      30.10S
LAFAYETTE      SUNNY     75  41  29 NE7       30.09F
PATTERSON      SUNNY     73  41  31 NW6       30.08F
SALT POINT       N/A     63  50  62 SW6       30.09S
NEW IBERIA     SUNNY     76  40  27 N5        30.09F
CHENAULT AIRPK NOT AVBL

$$

LAZ027-028-272200-
CENTRAL LOUISIANA

CITY           SKY/WX    TMP DP  RH WIND       PRES   REMARKS
FORT POLK      SUNNY     75  39  27 NE7       30.09F
ALEXANDRIA INT SUNNY     73  43  33 SW6       30.09S
ALEXANDRIA     SUNNY     77  36  22 CALM      30.10S

$$

LAZ001-002-272200-
NORTHWEST LOUISIANA

CITY           SKY/WX    TMP DP  RH WIND       PRES   REMARKS
SHREVEPORT     SUNNY     76  31  19 N5        30.10F
BARKSDALE AFB  SUNNY     73  38  28 VRB3      30.11F
DTN SHREVEPORT SUNNY     72  31  22 CALM      30.11F

$$

LAZ014-016-272200-
NORTHEAST LOUISIANA

CITY           SKY/WX    TMP DP  RH WIND       PRES   REMARKS
MONROE         SUNNY     71  36  27 CALM      30.12S
TALLULAH       SUNNY     68  34  28 NW8       30.11S

$$




USA.gov is the U.S. government's official web portal to all federal, state and local government web resources and services.